Location: Unspecified
(0.0000°N, 0.0000°E)
Time: 15:21:08
(UTC+00:00)

N. Korean satellite - Pass Details

Date: 17 February 2018
Orbit: 459 x 514 km, 97.2° (Epoch: 24 February)

Event Time Altitude Azimuth Distance (km) Brightness Sun altitude
Rises 18:53:31 0° 193° (SSW) 2,506 10.5 -9.7°
Reaches altitude 10° 18:55:58 10° 211° (SSW) 1,618 9.9 -10.3°
Maximum altitude 18:58:32 19° 259° (WSW) 1,144 9.7 -10.9°
Drops below altitude 10° 19:01:04 10° 307° (NW) 1,600 9.8 -11.5°
Sets 19:03:29 0° 325° (NW) 2,467 10.5 -12.1°
